| time (UTC) | temp F | wind direction | speed MPH | gust MPH | rain 1hr in | rain 24hr in | rain mn in | humidity % | barometer mb |
| 20260507155504 | 58 | 172 | 0.0 | 5.0 | 0.00 | 0.00 | 0.00 | 62 | 1022.6 |
| 20260507155005 | 58 | 119 | 3.0 | 5.0 | 0.00 | 0.00 | 0.00 | 66 | 1022.7 |
| 20260507154504 | 59 | 136 | 1.0 | 7.0 | 0.00 | 0.00 | 0.00 | 66 | 1022.9 |
| 20260507154004 | 61 | 158 | 1.0 | 7.0 | 0.00 | 0.00 | 0.00 | 62 | 1022.8 |
| 20260507153505 | 62 | 159 | 2.0 | 7.0 | 0.00 | 0.00 | 0.00 | 63 | 1022.9 |
| 20260507153004 | 61 | 144 | 1.0 | 7.0 | 0.00 | 0.00 | 0.00 | 61 | 1023.1 |
| 20260507152504 | 60 | 292 | 1.0 | 5.0 | 0.00 | 0.00 | 0.00 | 61 | 1023.2 |
| 20260507152004 | 61 | 135 | 2.0 | 5.0 | 0.00 | 0.00 | 0.00 | 65 | 1023.2 |
| 20260507151505 | 60 | 125 | 2.0 | 5.0 | 0.00 | 0.00 | 0.00 | 70 | 1023.2 |
| 20260507151004 | 60 | 158 | 1.0 | 5.0 | 0.00 | 0.00 | 0.00 | 70 | 1023.1 |
| 20260507150504 | 59 | 124 | 1.0 | 6.0 | 0.00 | 0.00 | 0.00 | 70 | 1023.3 |
| 20260507150004 | 58 | 135 | 2.0 | 6.0 | 0.00 | 0.00 | 0.00 | 77 | 1023.0 |
| 20260507145504 | 58 | 148 | 1.0 | 5.0 | 0.00 | 0.00 | 0.00 | 72 | 1023.3 |
| 20260507145004 | 58 | 156 | 2.0 | 6.0 | 0.00 | 0.00 | 0.00 | 78 | 1023.1 |
| 20260507144504 | 56 | 146 | 1.0 | 7.0 | 0.00 | 0.00 | 0.00 | 77 | 1023.1 |
| 20260507144007 | 57 | 113 | 1.0 | 7.0 | 0.00 | 0.00 | 0.00 | 75 | 1023.4 |
| 20260507143504 | 57 | 129 | 3.0 | 7.0 | 0.00 | 0.00 | 0.00 | 77 | 1023.2 |
| 20260507143005 | 57 | 122 | 2.0 | 7.0 | 0.00 | 0.00 | 0.00 | 77 | 1023.2 |
| 20260507142505 | 57 | 128 | 3.0 | 6.0 | 0.00 | 0.00 | 0.00 | 78 | 1023.3 |
| 20260507142004 | 57 | 148 | 2.0 | 5.0 | 0.00 | 0.00 | 0.00 | 77 | 1023.1 |
| 20260507141504 | 55 | 112 | 1.0 | 5.0 | 0.00 | 0.00 | 0.00 | 80 | 1023.1 |
| 20260507141007 | 54 | 149 | 1.0 | 5.0 | 0.00 | 0.01 | 0.00 | 83 | 1023.2 |
| 20260507140504 | 53 | 177 | 1.0 | 3.0 | 0.00 | 0.01 | 0.00 | 83 | 1023.3 |
| 20260507140005 | 53 | 141 | 1.0 | 5.0 | 0.00 | 0.01 | 0.00 | 84 | 1022.9 |
| 20260507135504 | 52 | 166 | 1.0 | 5.0 | 0.00 | 0.01 | 0.00 | 84 | 1023.0 |
| 20260507135005 | 52 | 128 | 1.0 | 5.0 | 0.00 | 0.01 | 0.00 | 85 | 1023.1 |
| 20260507134504 | 52 | 132 | 1.0 | 5.0 | 0.00 | 0.02 | 0.00 | 86 | 1023.2 |
| 20260507134004 | 51 | 122 | 2.0 | 3.0 | 0.00 | 0.02 | 0.00 | 88 | 1023.2 |
| 20260507133507 | 50 | 246 | 2.0 | 3.0 | 0.00 | 0.02 | 0.00 | 90 | 1023.2 |
| 20260507133004 | 50 | 227 | 1.0 | 2.0 | 0.00 | 0.02 | 0.00 | 93 | 1023.1 |
| 20260507132504 | 49 | 128 | 0.0 | 2.0 | 0.00 | 0.02 | 0.00 | 95 | 1023.0 |
| 20260507132004 | 49 | 169 | 0.0 | 2.0 | 0.00 | 0.02 | 0.00 | 96 | 1023.2 |
| 20260507131505 | 49 | 122 | 0.0 | 2.0 | 0.00 | 0.02 | 0.00 | 97 | 1022.8 |
| 20260507131003 | 49 | 199 | 1.0 | 2.0 | 0.00 | 0.02 | 0.00 | 97 | 1022.9 |
| 20260507130004 | 48 | 236 | 1.0 | 3.0 | 0.00 | 0.02 | 0.00 | 99 | 1022.3 |
| 20260507122005 | 47 | 112 | 0.0 | 0.0 | 0.00 | 0.02 | 0.00 | 99 | 1021.8 |
| 20260507121505 | 47 | 112 | 0.0 | 0.0 | 0.00 | 0.02 | 0.00 | 99 | 1021.8 |
| 20260507121004 | 46 | 112 | 0.0 | 0.0 | 0.00 | 0.02 | 0.00 | 99 | 1021.8 |
| 20260507120504 | 47 | 112 | 0.0 | 2.0 | 0.00 | 0.04 | 0.00 | 99 | 1021.9 |
| 20260507120005 | 48 | 123 | 0.0 | 2.0 | 0.00 | 0.04 | 0.00 | 99 | 1021.9 |
| 20260507115505 | 47 | 113 | 1.0 | 2.0 | 0.00 | 0.04 | 0.00 | 99 | 1021.9 |
| 20260507115004 | 46 | 112 | 0.0 | 0.0 | 0.00 | 0.04 | 0.00 | 99 | 1021.7 |
| 20260507114504 | 46 | 112 | 0.0 | 0.0 | 0.00 | 0.04 | 0.00 | 99 | 1021.7 |
| 20260507113004 | 47 | 112 | 0.0 | 0.0 | 0.00 | 0.04 | 0.00 | 99 | 1021.8 |
| 20260507112503 | 48 | 112 | 0.0 | 0.0 | 0.00 | 0.04 | 0.00 | 99 | 1021.9 |
| 20260507112004 | 49 | 124 | 0.0 | 0.0 | 0.00 | 0.04 | 0.00 | 99 | 1022.0 |
| 20260507111504 | 49 | 121 | 0.0 | 0.0 | 0.00 | 0.04 | 0.00 | 99 | 1021.8 |
| 20260507103504 | 48 | 112 | 0.0 | 0.0 | 0.00 | 0.12 | 0.00 | 99 | 1021.4 |
| 20260507103004 | 48 | 112 | 0.0 | 0.0 | 0.00 | 0.13 | 0.00 | 99 | 1021.2 |
| 20260507102503 | 47 | 112 | 0.0 | 0.0 | 0.00 | 0.14 | 0.00 | 99 | 1021.1 |
| 20260507102003 | 48 | 112 | 0.0 | 0.0 | 0.00 | 0.15 | 0.00 | 99 | 1021.1 |
| 20260507101503 | 48 | 112 | 0.0 | 0.0 | 0.00 | 0.18 | 0.00 | 99 | 1021.1 |
| 20260507101003 | 48 | 112 | 0.0 | 0.0 | 0.00 | 0.20 | 0.00 | 99 | 1021.1 |
| 20260507100504 | 47 | 135 | 0.0 | 0.0 | 0.00 | 0.22 | 0.00 | 98 | 1021.0 |
| 20260507100003 | 47 | 135 | 0.0 | 0.0 | 0.00 | 0.22 | 0.00 | 98 | 1021.0 |
| 20260507095503 | 48 | 135 | 0.0 | 0.0 | 0.00 | 0.22 | 0.00 | 98 | 1020.9 |
| 20260507095004 | 48 | 125 | 0.0 | 0.0 | 0.00 | 0.22 | 0.00 | 98 | 1020.8 |
| 20260507094504 | 49 | 132 | 0.0 | 0.0 | 0.00 | 0.22 | 0.00 | 98 | 1020.8 |
| 20260507094003 | 48 | 123 | 0.0 | 0.0 | 0.00 | 0.22 | 0.00 | 98 | 1020.8 |
| 20260507093503 | 49 | 112 | 0.0 | 0.0 | 0.00 | 0.22 | 0.00 | 98 | 1020.8 |
| 20260507093004 | 49 | 112 | 0.0 | 0.0 | 0.00 | 0.22 | 0.00 | 98 | 1020.7 |
| 20260507092504 | 49 | 112 | 0.0 | 0.0 | 0.00 | 0.24 | 0.00 | 98 | 1020.8 |
| 20260507092006 | 49 | 129 | 0.0 | 0.0 | 0.00 | 0.24 | 0.00 | 98 | 1020.8 |
| 20260507091503 | 49 | 107 | 0.0 | 0.0 | 0.00 | 0.24 | 0.00 | 97 | 1021.0 |
| 20260507091003 | 48 | 127 | 0.0 | 0.0 | 0.00 | 0.24 | 0.00 | 97 | 1020.7 |
| 20260507090503 | 48 | 112 | 0.0 | 0.0 | 0.00 | 0.24 | 0.00 | 97 | 1020.6 |
| 20260507090004 | 48 | 112 | 0.0 | 0.0 | 0.00 | 0.24 | 0.00 | 97 | 1020.8 |
| 20260507085503 | 48 | 99 | 0.0 | 0.0 | 0.00 | 0.25 | 0.00 | 97 | 1020.7 |
| 20260507085003 | 48 | 111 | 0.0 | 0.0 | 0.00 | 0.25 | 0.00 | 97 | 1020.5 |
| 20260507084503 | 48 | 270 | 0.0 | 0.0 | 0.00 | 0.25 | 0.00 | 96 | 1020.6 |
| 20260507084004 | 47 | 112 | 0.0 | 0.0 | 0.00 | 0.25 | 0.00 | 96 | 1020.5 |
| 20260507083503 | 47 | 112 | 0.0 | 0.0 | 0.00 | 0.25 | 0.00 | 96 | 1020.7 |
| 20260507083004 | 48 | 112 | 0.0 | 0.0 | 0.00 | 0.25 | 0.00 | 95 | 1020.5 |
| 20260507082504 | 48 | 130 | 0.0 | 1.0 | 0.00 | 0.25 | 0.00 | 95 | 1020.7 |
| 20260507082003 | 49 | 121 | 0.0 | 1.0 | 0.00 | 0.25 | 0.00 | 95 | 1020.7 |
| 20260507081506 | 49 | 140 | 0.0 | 1.0 | 0.00 | 0.25 | 0.00 | 95 | 1020.7 |
| 20260507081003 | 49 | 119 | 0.0 | 2.0 | 0.00 | 0.27 | 0.00 | 94 | 1020.6 |
| 20260507080503 | 49 | 126 | 0.0 | 2.0 | 0.00 | 0.28 | 0.00 | 94 | 1020.7 |
| 20260507080004 | 49 | 126 | 0.0 | 2.0 | 0.00 | 0.30 | 0.00 | 94 | 1020.5 |
| 20260507075503 | 49 | 121 | 1.0 | 2.0 | 0.00 | 0.32 | 0.00 | 94 | 1020.4 |
| 20260507075003 | 49 | 135 | 0.0 | 2.0 | 0.00 | 0.32 | 0.00 | 94 | 1020.5 |
| 20260507074506 | 49 | 170 | 1.0 | 2.0 | 0.00 | 0.32 | 0.00 | 94 | 1020.3 |
| 20260507073504 | 48 | 100 | 0.0 | 2.0 | 0.00 | 0.32 | 0.00 | 95 | 1020.3 |
| 20260507073003 | 48 | 135 | 0.0 | 0.0 | 0.00 | 0.32 | 0.00 | 95 | 1020.3 |
| 20260507072503 | 48 | 112 | 0.0 | 0.0 | 0.00 | 0.32 | 0.00 | 95 | 1020.4 |
| 20260507072004 | 48 | 90 | 0.0 | 0.0 | 0.00 | 0.32 | 0.00 | 95 | 1020.4 |
| 20260507071504 | 48 | 202 | 0.0 | 0.0 | 0.00 | 0.32 | 0.00 | 95 | 1020.2 |
| 20260507065003 | 48 | 127 | 0.0 | 2.0 | 0.00 | 0.32 | 0.00 | 95 | 1020.3 |
| 20260507064503 | 48 | 112 | 0.0 | 0.0 | 0.00 | 0.32 | 0.00 | 95 | 1020.3 |
| 20260507064003 | 48 | 135 | 0.0 | 1.0 | 0.00 | 0.32 | 0.00 | 95 | 1020.3 |
| 20260507063504 | 48 | 112 | 0.0 | 1.0 | 0.00 | 0.32 | 0.00 | 95 | 1020.3 |
| 20260507063003 | 47 | 178 | 0.0 | 1.0 | 0.00 | 0.32 | 0.00 | 95 | 1020.3 |
| 20260507062504 | 47 | 315 | 0.0 | 1.0 | 0.00 | 0.32 | 0.00 | 95 | 1020.2 |
| 20260507062003 | 47 | 112 | 0.0 | 1.0 | 0.00 | 0.32 | 0.00 | 96 | 1020.3 |
| 20260507061503 | 48 | 135 | 0.0 | 1.0 | 0.00 | 0.32 | 0.00 | 96 | 1020.2 |
| 20260507061006 | 48 | 135 | 0.0 | 1.0 | 0.00 | 0.32 | 0.00 | 97 | 1020.2 |
| 20260507060503 | 46 | 144 | 0.0 | 1.0 | 0.00 | 0.32 | 0.00 | 97 | 1020.0 |
| 20260507060004 | 46 | 112 | 0.0 | 1.0 | 0.00 | 0.32 | 0.00 | 97 | 1020.1 |
| 20260507055503 | 46 | 112 | 0.0 | 0.0 | 0.00 | 0.33 | 0.00 | 96 | 1020.0 |
| 20260507055004 | 46 | 112 | 0.0 | 0.0 | 0.00 | 0.33 | 0.00 | 96 | 1019.9 |
| 20260507054503 | 46 | 112 | 0.0 | 0.0 | 0.00 | 0.33 | 0.00 | 95 | 1019.9 |
| 20260507054006 | 47 | 112 | 0.0 | 0.0 | 0.00 | 0.33 | 0.00 | 95 | 1019.8 |
| 20260507053504 | 47 | 42 | 0.0 | 0.0 | 0.00 | 0.33 | 0.00 | 95 | 1019.6 |
| 20260507053004 | 47 | 22 | 0.0 | 0.0 | 0.00 | 0.33 | 0.00 | 94 | 1019.7 |
| 20260507052503 | 47 | 22 | 0.0 | 0.0 | 0.00 | 0.34 | 0.00 | 94 | 1019.8 |
| 20260507052004 | 47 | 112 | 0.0 | 2.0 | 0.00 | 0.34 | 0.00 | 93 | 1020.0 |
| 20260507051503 | 47 | 112 | 0.0 | 2.0 | 0.00 | 0.35 | 0.00 | 93 | 1019.9 |
| 20260507051006 | 48 | 112 | 1.0 | 3.0 | 0.00 | 0.37 | 0.00 | 94 | 1019.7 |
| 20260507050504 | 48 | 149 | 2.0 | 3.0 | 0.00 | 0.38 | 0.00 | 94 | 1019.5 |
| 20260507050005 | 48 | 135 | 2.0 | 3.0 | 0.00 | 0.38 | 0.00 | 96 | 1019.6 |
| 20260507045503 | 47 | 135 | 1.0 | 3.0 | 0.00 | 0.38 | 0.00 | 97 | 1019.5 |
| 20260507045003 | 45 | 288 | 1.0 | 3.0 | 0.00 | 0.38 | 0.00 | 97 | 1019.4 |
| 20260507044504 | 45 | 263 | 0.0 | 2.0 | 0.00 | 0.39 | 0.00 | 97 | 1019.5 |
| 20260507044006 | 46 | 225 | 0.0 | 2.0 | 0.00 | 0.41 | 0.00 | 97 | 1019.5 |
| 20260507043504 | 47 | 152 | 1.0 | 2.0 | 0.00 | 0.47 | 0.00 | 98 | 1019.3 |
| 20260507040004 | 47 | 144 | 1.0 | 1.0 | 0.00 | 0.67 | 0.00 | 97 | 1019.4 |
| 20260507031004 | 48 | 135 | 0.0 | 0.0 | 0.00 | 1.02 | 0.65 | 95 | 1019.0 |
| 20260507030504 | 48 | 147 | 0.0 | 2.0 | 0.00 | 1.03 | 0.65 | 94 | 1019.0 |
| 20260507030006 | 49 | 136 | 0.0 | 2.0 | 0.00 | 1.12 | 0.65 | 93 | 1019.0 |
| 20260507025503 | 50 | 131 | 1.0 | 3.0 | 0.00 | 1.18 | 0.65 | 95 | 1019.1 |
| 20260507025004 | 50 | 119 | 2.0 | 3.0 | 0.00 | 1.20 | 0.65 | 95 | 1019.0 |
| 20260507024504 | 49 | 121 | 0.0 | 1.0 | 0.00 | 1.22 | 0.65 | 93 | 1018.8 |
| 20260507022004 | 48 | 112 | 0.0 | 0.0 | 0.00 | 1.23 | 0.65 | 93 | 1018.7 |
| 20260507021504 | 49 | 134 | 0.0 | 2.0 | 0.00 | 1.23 | 0.65 | 92 | 1018.5 |
| 20260507021004 | 49 | 193 | 0.0 | 2.0 | 0.00 | 1.23 | 0.65 | 92 | 1018.3 |
| 20260507020504 | 49 | 101 | 0.0 | 2.0 | 0.00 | 1.23 | 0.65 | 93 | 1018.4 |
| 20260507020003 | 49 | 261 | 0.0 | 2.0 | 0.00 | 1.23 | 0.65 | 91 | 1018.3 |
| 20260507015504 | 50 | 248 | 0.0 | 2.0 | 0.00 | 1.23 | 0.65 | 89 | 1018.2 |
| 20260507015007 | 50 | 188 | 0.0 | 2.0 | 0.00 | 1.23 | 0.65 | 89 | 1018.3 |
| 20260507014504 | 51 | 169 | 0.0 | 2.0 | 0.00 | 1.23 | 0.65 | 89 | 1018.2 |
| 20260507014004 | 51 | 123 | 0.0 | 2.0 | 0.00 | 1.23 | 0.65 | 89 | 1018.1 |
| 20260507013004 | 51 | 199 | 0.0 | 3.0 | 0.00 | 1.23 | 0.65 | 88 | 1018.0 |
| 20260507012503 | 51 | 147 | 1.0 | 6.0 | 0.00 | 1.23 | 0.65 | 88 | 1017.9 |
| 20260507012007 | 51 | 116 | 2.0 | 8.0 | 0.00 | 1.23 | 0.65 | 88 | 1017.9 |
| 20260507011504 | 52 | 128 | 1.0 | 8.0 | 0.00 | 1.23 | 0.65 | 89 | 1017.9 |
| 20260507011004 | 52 | 182 | 2.0 | 8.0 | 0.00 | 1.23 | 0.65 | 88 | 1017.8 |
| 20260507010504 | 52 | 142 | 1.0 | 5.0 | 0.00 | 1.23 | 0.65 | 89 | 1017.8 |
| 20260507010004 | 52 | 59 | 0.0 | 5.0 | 0.00 | 1.23 | 0.65 | 89 | 1017.6 |
| 20260507005504 | 52 | 265 | 1.0 | 5.0 | 0.00 | 1.23 | 0.65 | 89 | 1017.7 |
| 20260507005007 | 52 | 122 | 1.0 | 5.0 | 0.00 | 1.23 | 0.65 | 88 | 1017.5 |
| 20260507004004 | 52 | 224 | 1.0 | 6.0 | 0.00 | 1.23 | 0.65 | 89 | 1017.2 |
| 20260507003004 | 51 | 107 | 0.0 | 3.0 | 0.00 | 1.23 | 0.65 | 91 | 1017.1 |
| 20260507002504 | 52 | 141 | 0.0 | 3.0 | 0.00 | 1.23 | 0.65 | 90 | 1017.0 |
| 20260507002004 | 52 | 181 | 0.0 | 2.0 | 0.00 | 1.23 | 0.65 | 90 | 1017.0 |
| 20260507001503 | 52 | 238 | 0.0 | 2.0 | 0.00 | 1.23 | 0.65 | 89 | 1016.8 |
| 20260507001004 | 52 | 281 | 0.0 | 2.0 | 0.00 | 1.23 | 0.65 | 89 | 1016.9 |
| 20260507000504 | 52 | 294 | 0.0 | 2.0 | 0.00 | 1.23 | 0.65 | 89 | 1016.9 |
| 20260507000004 | 52 | 248 | 0.0 | 2.0 | 0.00 | 1.23 | 0.65 | 88 | 1016.7 |
| 20260506235504 | 53 | 350 | 1.0 | 5.0 | 0.00 | 1.23 | 0.65 | 88 | 1016.8 |
| 20260506235004 | 53 | 261 | 1.0 | 6.0 | 0.00 | 1.23 | 0.65 | 87 | 1016.5 |
| 20260506234504 | 53 | 227 | 1.0 | 6.0 | 0.00 | 1.23 | 0.65 | 87 | 1016.5 |
| 20260506234004 | 53 | 244 | 1.0 | 6.0 | 0.00 | 1.23 | 0.65 | 86 | 1016.4 |
| 20260506233504 | 54 | 94 | 0.0 | 6.0 | 0.00 | 1.23 | 0.65 | 84 | 1016.3 |
| 20260506232504 | 54 | 202 | 0.0 | 3.0 | 0.00 | 1.23 | 0.65 | 86 | 1016.1 |
| 20260506232004 | 54 | 170 | 0.0 | 3.0 | 0.00 | 1.23 | 0.65 | 85 | 1016.3 |
| 20260506231504 | 54 | 213 | 2.0 | 5.0 | 0.00 | 1.23 | 0.65 | 85 | 1016.0 |
| 20260506231004 | 54 | 162 | 1.0 | 6.0 | 0.00 | 1.23 | 0.65 | 85 | 1015.9 |
| 20260506230503 | 54 | 162 | 2.0 | 6.0 | 0.00 | 1.23 | 0.65 | 85 | 1015.9 |
| 20260506230004 | 54 | 112 | 1.0 | 3.0 | 0.00 | 1.23 | 0.65 | 87 | 1015.6 |
| 20260506225504 | 54 | 198 | 1.0 | 3.0 | 0.00 | 1.23 | 0.65 | 85 | 1015.8 |
| 20260506225007 | 53 | 82 | 0.0 | 6.0 | 0.00 | 1.23 | 0.65 | 86 | 1015.7 |
| 20260506224504 | 53 | 61 | 1.0 | 6.0 | 0.00 | 1.23 | 0.65 | 87 | 1015.6 |
| 20260506224003 | 53 | 214 | 1.0 | 6.0 | 0.00 | 1.23 | 0.65 | 87 | 1015.7 |
| 20260506223504 | 53 | 225 | 0.0 | 1.0 | 0.00 | 1.23 | 0.65 | 87 | 1015.5 |
| 20260506223004 | 53 | 100 | 0.0 | 3.0 | 0.00 | 1.23 | 0.65 | 87 | 1015.4 |
| 20260506222504 | 53 | 118 | 0.0 | 3.0 | 0.00 | 1.23 | 0.65 | 87 | 1015.2 |
| 20260506222007 | 53 | 195 | 1.0 | 3.0 | 0.00 | 1.23 | 0.65 | 86 | 1015.2 |
| 20260506221504 | 54 | 95 | 1.0 | 6.0 | 0.00 | 1.23 | 0.65 | 86 | 1015.2 |
| 20260506221004 | 54 | 178 | 1.0 | 7.0 | 0.00 | 1.23 | 0.65 | 85 | 1014.9 |
| 20260506220504 | 54 | 246 | 1.0 | 7.0 | 0.00 | 1.23 | 0.65 | 85 | 1014.9 |
| 20260506220004 | 54 | 182 | 3.0 | 6.0 | 0.00 | 1.23 | 0.65 | 85 | 1015.0 |
| 20260506215503 | 54 | 248 | 1.0 | 5.0 | 0.00 | 1.23 | 0.65 | 85 | 1014.9 |
| 20260506215006 | 55 | 187 | 1.0 | 5.0 | 0.00 | 1.23 | 0.65 | 83 | 1014.6 |
| 20260506214504 | 55 | 252 | 1.0 | 5.0 | 0.00 | 1.23 | 0.65 | 83 | 1014.5 |
| 20260506214004 | 56 | 59 | 1.0 | 7.0 | 0.00 | 1.23 | 0.65 | 82 | 1014.5 |
| 20260506213505 | 57 | 94 | 1.0 | 7.0 | 0.00 | 1.23 | 0.65 | 82 | 1014.4 |
| 20260506213004 | 57 | 128 | 2.0 | 8.0 | 0.00 | 1.23 | 0.65 | 79 | 1014.3 |
| 20260506212503 | 57 | 55 | 2.0 | 8.0 | 0.00 | 1.23 | 0.65 | 79 | 1014.1 |
| 20260506212004 | 57 | 81 | 2.0 | 7.0 | 0.00 | 1.23 | 0.65 | 79 | 1014.0 |
| 20260506211507 | 57 | 248 | 2.0 | 6.0 | 0.00 | 1.23 | 0.65 | 79 | 1014.1 |
| 20260506211004 | 57 | 270 | 1.0 | 7.0 | 0.00 | 1.23 | 0.65 | 82 | 1014.1 |
| 20260506210503 | 57 | 192 | 1.0 | 7.0 | 0.00 | 1.23 | 0.65 | 82 | 1014.1 |
| 20260506210004 | 57 | 285 | 2.0 | 10.0 | 0.00 | 1.23 | 0.65 | 81 | 1014.0 |
| 20260506205503 | 57 | 225 | 2.0 | 10.0 | 0.00 | 1.23 | 0.65 | 81 | 1013.9 |
| 20260506205004 | 58 | 264 | 3.0 | 12.0 | 0.00 | 1.23 | 0.65 | 79 | 1013.9 |
| 20260506204504 | 58 | 193 | 2.0 | 12.0 | 0.00 | 1.23 | 0.65 | 78 | 1014.0 |
| 20260506204006 | 59 | 174 | 4.0 | 12.0 | 0.00 | 1.23 | 0.65 | 77 | 1013.9 |
| 20260506203503 | 59 | 302 | 3.0 | 8.0 | 0.00 | 1.23 | 0.65 | 77 | 1013.7 |
| 20260506203004 | 58 | 253 | 1.0 | 7.0 | 0.00 | 1.23 | 0.65 | 79 | 1013.7 |
| 20260506200504 | 60 | 62 | 3.0 | 9.0 | 0.00 | 1.23 | 0.65 | 75 | 1013.4 |
| 20260506200004 | 61 | 243 | 2.0 | 7.0 | 0.00 | 1.23 | 0.65 | 75 | 1013.2 |
| 20260506195504 | 60 | 238 | 2.0 | 8.0 | 0.00 | 1.23 | 0.65 | 76 | 1013.3 |
| 20260506195004 | 59 | 76 | 3.0 | 13.0 | 0.00 | 1.23 | 0.65 | 78 | 1013.2 |
| 20260506194503 | 59 | 259 | 3.0 | 13.0 | 0.00 | 1.23 | 0.65 | 78 | 1013.0 |
| 20260506194004 | 61 | 0 | 3.0 | 10.0 | 0.00 | 1.23 | 0.65 | 73 | 1012.9 |
| 20260506193504 | 63 | 305 | 3.0 | 8.0 | 0.00 | 1.23 | 0.65 | 72 | 1013.0 |
| 20260506193004 | 62 | 249 | 2.0 | 7.0 | 0.00 | 1.23 | 0.65 | 73 | 1012.8 |
| 20260506192504 | 60 | 270 | 1.0 | 7.0 | 0.00 | 1.23 | 0.65 | 75 | 1012.8 |
| 20260506192006 | 59 | 295 | 3.0 | 12.0 | 0.00 | 1.23 | 0.65 | 77 | 1012.8 |
| 20260506191504 | 60 | 249 | 3.0 | 12.0 | 0.00 | 1.23 | 0.65 | 75 | 1012.7 |
| 20260506191004 | 60 | 332 | 2.0 | 9.0 | 0.00 | 1.23 | 0.65 | 74 | 1012.6 |
| 20260506185504 | 61 | 147 | 3.0 | 9.0 | 0.00 | 1.23 | 0.65 | 73 | 1012.5 |
| 20260506185004 | 61 | 196 | 1.0 | 6.0 | 0.00 | 1.23 | 0.65 | 75 | 1012.2 |
| 20260506184504 | 60 | 267 | 2.0 | 8.0 | 0.00 | 1.23 | 0.65 | 78 | 1012.2 |
| 20260506184004 | 60 | 49 | 1.0 | 8.0 | 0.00 | 1.23 | 0.65 | 77 | 1012.2 |
| 20260506183503 | 59 | 120 | 2.0 | 8.0 | 0.00 | 1.23 | 0.65 | 78 | 1011.9 |
| 20260506183005 | 59 | 152 | 2.0 | 8.0 | 0.00 | 1.23 | 0.65 | 79 | 1011.8 |
| 20260506182503 | 60 | 173 | 3.0 | 8.0 | 0.00 | 1.23 | 0.65 | 77 | 1011.6 |
| 20260506182004 | 59 | 266 | 2.0 | 7.0 | 0.00 | 1.23 | 0.65 | 78 | 1011.5 |
| 20260506181504 | 59 | 261 | 2.0 | 10.0 | 0.00 | 1.23 | 0.65 | 79 | 1011.4 |
| 20260506181004 | 58 | 138 | 3.0 | 10.0 | 0.00 | 1.23 | 0.65 | 81 | 1011.5 |
| 20260506180503 | 58 | 294 | 3.0 | 8.0 | 0.00 | 1.23 | 0.65 | 80 | 1011.3 |
| 20260506180004 | 58 | 270 | 4.0 | 9.0 | 0.00 | 1.23 | 0.65 | 82 | 1011.1 |
| 20260506175504 | 58 | 241 | 3.0 | 9.0 | 0.00 | 1.23 | 0.65 | 83 | 1011.0 |
| 20260506175004 | 58 | 254 | 5.0 | 10.0 | 0.00 | 1.23 | 0.65 | 83 | 1011.0 |
| 20260506171004 | 57 | 193 | 3.0 | 8.0 | 0.00 | 1.23 | 0.65 | 87 | 1010.3 |
| 20260506170503 | 56 | 202 | 3.0 | 8.0 | 0.00 | 1.23 | 0.65 | 88 | 1010.4 |
| 20260506170003 | 56 | 328 | 3.0 | 8.0 | 0.00 | 1.23 | 0.65 | 91 | 1010.3 |
| 20260506165504 | 56 | 129 | 2.0 | 12.0 | 0.00 | 1.23 | 0.65 | 92 | 1010.3 |
| 20260506165004 | 56 | 247 | 3.0 | 13.0 | 0.00 | 1.23 | 0.65 | 90 | 1010.1 |
| 20260506164504 | 57 | 246 | 5.0 | 13.0 | 0.00 | 1.23 | 0.65 | 88 | 1010.1 |
| 20260506164004 | 57 | 148 | 5.0 | 13.0 | 0.00 | 1.23 | 0.65 | 88 | 1009.7 |
| 20260506163503 | 57 | 41 | 3.0 | 13.0 | 0.00 | 1.23 | 0.65 | 88 | 1009.7 |
| 20260506163003 | 57 | 175 | 4.0 | 13.0 | 0.00 | 1.23 | 0.65 | 88 | 1009.6 |
| 20260506162504 | 57 | 208 | 3.0 | 13.0 | 0.00 | 1.23 | 0.65 | 88 | 1009.3 |
| 20260506162003 | 58 | 250 | 3.0 | 9.0 | 0.00 | 1.23 | 0.65 | 89 | 1009.4 |
| 20260506161503 | 58 | 257 | 2.0 | 10.0 | 0.00 | 1.23 | 0.65 | 88 | 1009.2 |
| 20260506161004 | 58 | 213 | 3.0 | 10.0 | 0.00 | 1.23 | 0.65 | 89 | 1009.1 |
| 20260506160504 | 58 | 235 | 4.0 | 10.0 | 0.00 | 1.23 | 0.65 | 88 | 1009.1 |
| 20260506160004 | 57 | 156 | 2.0 | 9.0 | 0.00 | 1.23 | 0.65 | 91 | 1009.0 |